QPF
0.00 0.00 0.00 0.00 0.00 0.00 0.00 0.00 0.00 0.00 0.00 0.00 0.00 0.00 0.00 0.00 0.00 0.00 0.00 0.00 0.00 0.00
0.00 0.00 0.00 0.00 0.00 0.00 0.00 0.00 0.00 0.00 0.00 0.00 0.00 0.00 0.00 0.00 0.00 0.00 0.00 0.00 0.00 0.00
0.00 0.00 0.00 0.00 0.00 0.00 0.00 0.00 0.00 0.00 0.00 0.00 0.00 0.00 0.00 0.00 0.00 0.00 0.00 0.00 0.00 0.00
0.00 0.00 0.00 0.00 0.00 0.00 0.00 0.00 0.00 0.00 0.00 0.00 0.00 0.00 0.00 0.00 0.00 0.00 0.00 0.00 0.00 0.00
0.00 0.00 0.00 0.00 0.00 0.00 0.00 0.00 0.00 0.00 0.00 0.00 0.00 0.00 0.00 0.00 0.00 0.00 0.00 0.00 0.00 0.00
0.00 0.00 0.00 0.00 0.00 0.00 0.00 0.00 0.00 0.00 0.00 0.00 0.00 0.00 0.00 0.00 0.00 0.00 0.00 0.00 0.00 0.00
0.00 0.00 0.00 0.00 0.00 0.00 0.00 0.00 0.00 0.00 0.00 0.00 0.00 0.00 0.00 0.00 0.00 0.00 0.00 0.00 0.00 0.00
0.00 0.00 0.00 0.00 0.00 0.00 0.00 0.00 0.00 0.00 0.00 0.00 0.00 0.00 0.00 0.00 0.00 0.00 0.00 0.00 0.00 0.00
0.00 0.00 0.00 0.00 0.00 0.00 0.00 0.00 0.00 0.00 0.00 0.00 0.00 0.00 0.00 0.00 0.00 0.00 0.00 0.00 0.00 0.00
0.00 0.00 0.00 0.00 0.00 0.00 0.00 0.00 0.00 0.00 0.00 0.00 0.00 0.01 0.00 0.00 0.00 0.00 0.00 0.00 0.00 0.00
0.00 0.00 0.00 0.00 0.00 0.00 0.00 0.00 0.00 0.00 0.00 0.00 0.00 0.00 0.00 0.00 0.00 0.00 0.00 0.00 0.00 0.00
0.00 0.00 0.00 0.00 0.00 0.00 0.00 0.00 0.00 0.00 0.00 0.00 0.00 0.00 0.00 0.00 0.00 0.00 0.00 0.00 0.00 0.00
0.00 0.00 0.00 0.00 0.00 0.00 0.00 0.00 0.00 0.00 0.00 0.00 0.00 0.00 0.00 0.00 0.00 0.00 0.00 0.00 0.00 0.00
0.00 0.00 0.00 0.00 0.00 0.00 0.00 0.00 0.00 0.00 0.00 0.00 0.00 0.00 0.00 0.00 0.00 0.00 0.00 0.00 0.00 0.00
MSLP
1026.10 1025.78 1025.37 1024.96 1024.49 1023.95 1023.29 1022.65 1021.97 1021.35 1020.71 1020.15 1019.49 1018.74 1017.97 1017.49 1016.97 1016.42 1015.98 1015.51 1015.08 1014.71
1026.04 1025.69 1025.34 1024.78 1024.39 1023.91 1023.21 1022.47 1022.00 1021.43 1020.89 1020.29 1019.77 1019.18 1018.55 1017.99 1017.49 1016.89 1016.47 1016.00 1015.45 1014.98
1025.98 1025.59 1025.16 1024.77 1024.28 1023.76 1023.21 1022.64 1022.10 1021.51 1020.91 1020.33 1019.75 1019.30 1018.80 1018.21 1017.68 1017.20 1016.77 1016.33 1015.90 1015.27
1025.81 1025.53 1025.16 1024.79 1024.27 1023.80 1023.24 1022.77 1022.29 1021.76 1021.14 1020.54 1019.95 1019.42 1018.96 1018.51 1018.10 1017.59 1017.17 1016.66 1016.14 1015.38
1025.75 1025.45 1025.11 1024.77 1024.32 1023.70 1023.26 1022.78 1022.37 1021.87 1021.27 1020.64 1020.09 1019.58 1019.18 1018.80 1018.44 1018.08 1017.69 1017.07 1016.43 1015.73
1025.74 1025.54 1025.13 1024.68 1024.24 1023.70 1023.18 1022.69 1022.31 1021.86 1021.53 1020.80 1020.23 1019.77 1019.32 1018.99 1018.66 1018.31 1017.94 1017.42 1016.90 1016.15
1025.85 1025.55 1025.04 1024.71 1024.39 1023.51 1023.16 1022.82 1022.30 1021.90 1021.57 1021.05 1020.36 1019.90 1019.42 1019.12 1018.89 1018.57 1018.13 1017.62 1017.07 1016.50
1025.58 1025.46 1024.91 1024.57 1023.87 1023.60 1023.23 1022.86 1022.64 1022.28 1021.60 1021.15 1020.32 1019.61 1019.35 1019.15 1018.97 1018.72 1018.39 1017.84 1017.33 1016.71
1025.61 1025.14 1024.69 1024.51 1024.10 1023.69 1023.30 1023.22 1022.82 1022.32 1021.76 1021.15 1020.44 1019.35 1019.08 1019.12 1019.03 1018.79 1018.52 1018.15 1017.62 1017.03
1025.24 1025.07 1024.71 1024.39 1024.20 1023.78 1023.65 1023.37 1023.04 1022.48 1021.77 1021.32 1020.54 1019.47 1018.88 1018.86 1018.89 1018.78 1018.53 1018.14 1017.70 1017.08
1025.32 1024.86 1024.67 1024.51 1024.20 1023.94 1023.81 1023.56 1023.07 1022.44 1022.01 1021.54 1020.70 1019.77 1019.04 1019.14 1019.02 1018.81 1018.45 1018.10 1017.73 1017.20
1025.00 1024.81 1024.76 1024.73 1024.33 1024.07 1023.85 1023.49 1023.04 1022.54 1022.19 1021.58 1020.80 1020.04 1019.16 1019.11 1018.96 1018.84 1018.47 1017.96 1017.47 1016.95
1024.80 1024.60 1024.58 1024.45 1024.31 1024.05 1023.85 1023.32 1022.83 1022.60 1022.15 1021.53 1021.16 1020.32 1019.55 1019.01 1018.90 1018.89 1018.62 1018.06 1017.55 1016.98
1024.70 1024.44 1024.26 1024.21 1024.08 1023.90 1023.78 1023.26 1023.06 1022.78 1022.04 1021.43 1020.87 1020.35 1019.65 1018.92 1018.63 1018.82 1018.79 1018.41 1017.93 1017.31
Thickness
5437 5430 5423 5415 5407 5399 5391 5385 5378 5371 5366 5360 5357 5357 5357 5356 5355 5354 5353 5353 5353 5354
5438 5432 5425 5418 5410 5402 5395 5388 5380 5373 5367 5361 5356 5353 5353 5353 5353 5355 5354 5354 5356 5357
5440 5434 5428 5421 5414 5407 5400 5393 5385 5378 5372 5366 5360 5355 5352 5352 5353 5353 5353 5354 5355 5359
5443 5437 5431 5424 5417 5411 5404 5396 5390 5383 5376 5369 5364 5360 5356 5353 5351 5351 5351 5352 5354 5359
5446 5440 5433 5427 5421 5416 5409 5402 5395 5388 5382 5376 5370 5364 5359 5356 5352 5351 5349 5349 5351 5356
5447 5441 5436 5432 5426 5421 5416 5410 5402 5395 5387 5383 5377 5372 5366 5360 5355 5352 5350 5350 5350 5353
5448 5443 5440 5434 5428 5428 5420 5413 5408 5401 5393 5388 5384 5378 5372 5366 5360 5355 5352 5351 5351 5351
5454 5447 5445 5439 5437 5430 5424 5417 5410 5403 5399 5393 5392 5388 5378 5371 5366 5360 5356 5354 5352 5352
5456 5452 5449 5442 5438 5433 5427 5418 5412 5408 5404 5399 5397 5397 5391 5382 5373 5367 5361 5357 5355 5354
5461 5455 5451 5445 5439 5435 5427 5421 5416 5412 5410 5404 5401 5403 5400 5392 5383 5376 5369 5365 5361 5360
5461 5459 5453 5448 5443 5437 5429 5423 5420 5418 5413 5407 5406 5407 5405 5396 5387 5381 5377 5373 5368 5364
5467 5461 5454 5448 5444 5438 5433 5428 5424 5421 5415 5411 5409 5409 5409 5400 5392 5386 5381 5379 5376 5373
5471 5466 5460 5454 5448 5443 5436 5434 5430 5425 5419 5417 5409 5409 5408 5404 5396 5389 5384 5381 5378 5377
5476 5471 5466 5459 5453 5448 5441 5439 5432 5426 5424 5420 5415 5411 5411 5409 5403 5393 5386 5381 5376 5373